TimeEDT,TemperatureF,Dew PointF,Humidity,Sea Level PressureIn,VisibilityMPH,Wind Direction,Wind SpeedMPH,Gust SpeedMPH,PrecipitationIn,Events,Conditions,WindDirDegrees,DateUTC
12:13 AM,35.6,35.6,100,29.54,5.0,NNW,17.3,20.7,N/A,,Overcast,330,2012-10-31 04:13:00
12:34 AM,35.6,35.6,100,29.54,4.0,NW,15.0,-,N/A,,Overcast,320,2012-10-31 04:34:00
12:54 AM,35.6,35.6,100,29.54,7.0,NW,17.3,-,N/A,,Overcast,320,2012-10-31 04:54:00
1:14 AM,35.6,35.6,100,29.54,10.0,NW,15.0,-,N/A,,Overcast,320,2012-10-31 05:14:00
1:34 AM,35.6,35.6,100,29.54,4.0,NW,15.0,21.9,N/A,,Overcast,320,2012-10-31 05:34:00
1:54 AM,35.6,35.6,100,29.54,5.0,NNW,15.0,19.6,N/A,,Overcast,330,2012-10-31 05:54:00
2:14 AM,35.6,35.6,100,29.54,10.0,NW,15.0,20.7,N/A,,Overcast,320,2012-10-31 06:14:00
2:34 AM,35.6,35.6,100,29.54,10.0,NW,13.8,20.7,N/A,,Overcast,320,2012-10-31 06:34:00
2:49 AM,35.6,35.6,100,29.54,10.0,NW,15.0,-,N/A,,Overcast,320,2012-10-31 06:49:00
3:09 AM,35.6,35.6,100,29.54,10.0,NNW,15.0,21.9,N/A,,Overcast,330,2012-10-31 07:09:00
3:29 AM,35.6,35.6,100,29.54,10.0,NNW,12.7,-,N/A,,Overcast,330,2012-10-31 07:29:00
3:50 AM,35.6,35.6,100,29.54,10.0,NW,12.7,-,N/A,,Overcast,320,2012-10-31 07:50:00
4:10 AM,35.6,35.6,100,29.54,10.0,NW,13.8,-,N/A,,Overcast,320,2012-10-31 08:10:00
4:30 AM,35.6,35.6,100,29.54,10.0,NW,12.7,-,N/A,,Overcast,310,2012-10-31 08:30:00
4:50 AM,35.6,35.6,100,29.54,10.0,NW,13.8,18.4,N/A,,Overcast,320,2012-10-31 08:50:00
5:10 AM,35.6,35.6,100,29.55,7.0,NW,13.8,20.7,N/A,,Overcast,320,2012-10-31 09:10:00
5:30 AM,35.6,35.6,100,29.55,5.0,NW,11.5,-,N/A,,Light Drizzle,310,2012-10-31 09:30:00
5:50 AM,35.6,35.6,100,29.56,4.0,NW,11.5,-,N/A,,Drizzle,320,2012-10-31 09:50:00
6:10 AM,35.6,35.6,100,29.56,4.0,NW,12.7,19.6,N/A,,Light Drizzle,320,2012-10-31 10:10:00
6:30 AM,35.6,35.6,100,29.56,7.0,NW,13.8,-,N/A,,Overcast,320,2012-10-31 10:30:00
6:50 AM,35.6,35.6,100,29.56,4.0,NW,15.0,-,N/A,,Drizzle,310,2012-10-31 10:50:00
7:11 AM,35.6,35.6,100,29.56,3.0,NW,10.4,-,N/A,,Drizzle,310,2012-10-31 11:11:00
7:31 AM,35.6,35.6,100,29.56,2.0,NW,11.5,16.1,N/A,,Drizzle,310,2012-10-31 11:31:00
7:51 AM,35.6,35.6,100,29.57,2.5,NW,11.5,-,N/A,,Light Drizzle,310,2012-10-31 11:51:00
8:11 AM,35.6,35.6,100,29.57,4.0,NW,12.7,-,N/A,,Light Drizzle,310,2012-10-31 12:11:00
8:31 AM,35.6,35.6,100,29.57,2.5,NW,11.5,-,N/A,,Light Drizzle,310,2012-10-31 12:31:00
8:51 AM,35.6,35.6,100,29.58,2.5,NW,13.8,-,N/A,,Light Drizzle,310,2012-10-31 12:51:00
9:11 AM,35.6,35.6,100,29.58,2.5,NW,11.5,-,N/A,,Overcast,310,2012-10-31 13:11:00
9:31 AM,35.6,35.6,100,29.58,5.0,NW,12.7,-,N/A,,Overcast,310,2012-10-31 13:31:00
9:51 AM,35.6,35.6,100,29.58,4.0,NW,12.7,-,N/A,,Overcast,310,2012-10-31 13:51:00
10:12 AM,37.4,37.4,100,29.58,4.0,NW,11.5,-,N/A,,Light Drizzle,320,2012-10-31 14:12:00
10:32 AM,37.4,37.4,100,29.58,5.0,NW,13.8,-,N/A,,Overcast,310,2012-10-31 14:32:00
10:52 AM,37.4,37.4,100,29.58,3.0,NW,11.5,16.1,N/A,,Overcast,310,2012-10-31 14:52:00
11:12 AM,37.4,37.4,100,29.58,3.0,WNW,13.8,-,N/A,,Overcast,300,2012-10-31 15:12:00
11:32 AM,37.4,37.4,100,29.59,2.5,NW,13.8,-,N/A,,Overcast,310,2012-10-31 15:32:00
11:52 AM,37.4,37.4,100,29.59,1.5,NW,12.7,18.4,N/A,,Light Drizzle,310,2012-10-31 15:52:00
12:17 PM,37.4,37.4,100,29.59,1.8,NW,13.8,-,N/A,Rain,Light Rain,310,2012-10-31 16:17:00
12:32 PM,39.2,39.2,100,29.59,2.0,NW,11.5,-,N/A,,Overcast,310,2012-10-31 16:32:00
12:52 PM,39.2,39.2,100,29.59,3.0,NW,11.5,-,N/A,,Overcast,320,2012-10-31 16:52:00
1:13 PM,41.0,39.2,93,29.58,5.0,NW,8.1,-,N/A,,Overcast,320,2012-10-31 17:13:00
1:33 PM,41.0,39.2,93,29.58,5.0,NW,9.2,-,N/A,,Overcast,320,2012-10-31 17:33:00
1:53 PM,41.0,41.0,100,29.58,7.0,NW,11.5,-,N/A,,Overcast,310,2012-10-31 17:53:00
2:18 PM,41.0,41.0,100,29.58,3.0,NW,10.4,-,N/A,Rain,Light Rain,310,2012-10-31 18:18:00
2:33 PM,41.0,41.0,100,29.58,3.0,NW,6.9,-,N/A,,Overcast,320,2012-10-31 18:33:00
3:13 PM,41.0,41.0,100,29.58,10.0,WNW,6.9,-,N/A,,Overcast,290,2012-10-31 19:13:00
3:33 PM,42.8,41.0,93,29.57,10.0,West,9.2,-,N/A,,Overcast,280,2012-10-31 19:33:00
3:53 PM,42.8,39.2,87,29.57,10.0,WNW,6.9,-,N/A,,Overcast,290,2012-10-31 19:53:00
4:14 PM,42.8,39.2,87,29.57,10.0,WNW,8.1,-,N/A,,Overcast,300,2012-10-31 20:14:00
4:34 PM,42.8,39.2,87,29.57,10.0,WNW,9.2,-,N/A,,Overcast,300,2012-10-31 20:34:00
4:54 PM,44.6,41.0,87,29.58,10.0,WNW,10.4,16.1,N/A,,Overcast,290,2012-10-31 20:54:00
5:14 PM,42.8,39.2,87,29.58,10.0,WNW,13.8,20.7,N/A,,Overcast,300,2012-10-31 21:14:00
5:34 PM,42.8,37.4,81,29.59,10.0,WNW,15.0,-,N/A,,Overcast,300,2012-10-31 21:34:00
5:54 PM,42.8,37.4,81,29.59,10.0,NW,12.7,19.6,N/A,Rain,Light Rain,310,2012-10-31 21:54:00
6:14 PM,42.8,37.4,81,29.59,10.0,NW,13.8,19.6,N/A,,Light Drizzle,310,2012-10-31 22:14:00
6:34 PM,42.8,37.4,81,29.60,10.0,WNW,13.8,17.3,N/A,,Overcast,300,2012-10-31 22:34:00
6:49 PM,42.8,37.4,81,29.60,10.0,NW,15.0,-,N/A,,Overcast,310,2012-10-31 22:49:00
7:09 PM,42.8,37.4,81,29.61,10.0,NW,16.1,23.0,N/A,,Overcast,320,2012-10-31 23:09:00
7:30 PM,42.8,37.4,81,29.62,10.0,NW,12.7,-,N/A,,Overcast,310,2012-10-31 23:30:00
7:50 PM,42.8,37.4,81,29.62,10.0,NW,11.5,16.1,N/A,,Overcast,310,2012-10-31 23:50:00
8:10 PM,41.0,35.6,81,29.63,10.0,NW,13.8,-,N/A,,Overcast,310,2012-11-01 00:10:00
8:30 PM,41.0,35.6,81,29.63,10.0,NW,11.5,19.6,N/A,,Overcast,310,2012-11-01 00:30:00
9:10 PM,41.0,35.6,81,29.63,10.0,WNW,12.7,-,N/A,,Overcast,300,2012-11-01 01:10:00
9:30 PM,41.0,35.6,81,29.64,10.0,WNW,10.4,-,N/A,,Overcast,300,2012-11-01 01:30:00
9:50 PM,41.0,35.6,81,29.64,10.0,WNW,10.4,16.1,N/A,,Overcast,300,2012-11-01 01:50:00
10:10 PM,41.0,35.6,81,29.64,10.0,WNW,13.8,19.6,N/A,,Overcast,300,2012-11-01 02:10:00
10:31 PM,41.0,35.6,81,29.65,10.0,NW,11.5,-,N/A,,Overcast,310,2012-11-01 02:31:00
10:51 PM,41.0,35.6,81,29.65,10.0,WNW,12.7,-,N/A,,Overcast,300,2012-11-01 02:51:00
11:11 PM,41.0,35.6,81,29.65,10.0,NW,12.7,-,N/A,,Overcast,310,2012-11-01 03:11:00
11:31 PM,41.0,35.6,81,29.65,10.0,NW,12.7,16.1,N/A,,Overcast,310,2012-11-01 03:31:00